カタログに戻る

ATLAS 5 CENTAUR DEB

LostHEO
NORAD 46867·DEBRIS·🇺🇸 United States

打ち上げ Oct 17, 2018 から Cape Canaveral Space Force Station

Loading…

次のパス (今後24時間)

TLE

古いSource: Space-Track

元期: May 3, 2024, 03:15 UTC

1 46867U 18079DY  24124.13563215 -.00000135  00000-0  00000+0 0  9994
2 46867  12.5554  15.4104 4495580  30.1364 349.4653  2.33886264 28626

AllMySatでATLAS 5 CENTAUR DEBをリアルタイム追跡

Download on the App Store